Wind_Speed
16 15 13 12 10 7 3 5 8 8 10 10 9 8 7 7 6 7 6 6 6 7 7 7 8 9 9 9 10 10 11 11 12 12 12 12 12 11 11 11 11 11 11 10 10 10 10 9 9
17 16 15 13 11 7 5 10 10 11 11 11 10 9 8 8 8 8 8 8 7 7 8 8 9 10 10 11 11 12 12 13 13 13 13 13 12 12 12 12 12 12 11 11 11 11 11 10 10
18 17 16 15 11 8 10 13 13 13 12 12 11 10 9 9 9 9 10 9 9 9 9 9 10 11 11 12 12 13 13 13 13 14 14 14 14 14 14 13 13 13 12 12 12 12 12 11 11
20 19 17 15 12 10 14 15 15 15 14 13 13 11 11 10 10 10 11 11 10 10 10 11 11 12 12 12 12 13 14 14 14 15 15 15 14 14 14 14 14 14 13 13 13 13 13 13 13
20 19 17 15 12 14 16 16 17 17 15 14 14 13 12 12 11 11 12 12 11 11 12 12 12 12 13 12 13 14 14 14 15 15 15 15 16 16 15 15 15 15 15 14 15 15 15 15 14
20 18 17 14 14 17 18 18 17 18 16 16 15 14 13 12 12 12 12 12 13 13 13 13 12 13 14 14 14 14 15 16 16 17 17 17 17 17 17 16 16 16 16 16 16 16 16 16 16
20 19 16 13 15 19 19 19 17 17 16 17 16 14 14 14 13 14 14 14 14 14 14 14 14 15 15 15 15 16 17 18 19 19 20 19 18 18 17 17 17 17 17 17 18 18 18 18 17
21 20 17 15 17 20 21 20 21 18 19 18 16 15 15 14 14 14 15 15 14 14 15 16 16 16 16 17 17 18 19 20 21 21 21 20 19 19 18 18 18 18 19 18 19 19 19 19 19
20 20 17 16 19 20 21 19 21 20 20 18 17 17 14 15 15 16 16 16 15 15 16 16 16 17 18 19 20 20 20 21 22 22 22 21 21 20 20 20 19 19 19 19 20 20 20 20 20
20 18 17 19 20 20 20 20 20 20 20 19 18 17 15 15 15 15 16 16 16 17 17 18 18 19 19 20 20 21 21 22 23 23 23 23 22 22 21 21 20 20 20 21 21 21 21 21 21
19 19 20 21 22 21 20 20 18 18 19 19 17 16 16 14 14 15 16 16 17 18 19 19 19 20 21 21 22 23 22 22 23 23 23 23 23 22 22 21 21 21 22 21 21 22 22 22 22
21 20 23 22 23 22 19 19 18 19 20 18 18 16 14 14 15 15 16 16 17 18 19 20 21 21 22 23 23 23 23 23 23 23 23 23 23 23 23 22 22 23 23 22 22 22 22 22 23
19 20 22 21 20 21 20 19 18 19 20 18 18 18 18 16 16 16 16 17 17 18 19 20 21 22 23 24 24 24 24 24 24 23 24 24 24 24 24 24 24 24 24 24 24 24 24 23 24
16 17 19 18 19 18 18 18 18 18 17 17 18 18 18 17 17 17 17 18 18 19 20 21 21 23 24 25 24 25 25 25 25 25 24 24 25 24 24 25 25 25 24 24 24 25 25 25 25
14 15 16 17 17 17 17 17 17 17 17 18 19 18 18 18 18 18 19 19 20 20 21 22 23 24 25 26 26 25 25 26 26 26 26 25 25 26 26 27 27 27 27 27 27 27 27 27 27
11 12 12 14 15 15 16 17 17 19 18 18 19 19 18 19 20 20 20 20 21 22 23 23 24 25 26 26 25 26 25 25 27 27 27 26 27 27 27 28 28 29 30 29 29 28 28 29 29
8 10 11 13 13 14 15 16 16 16 18 17 17 19 19 20 21 22 22 23 23 24 24 24 24 25 25 25 26 26 26 27 27 26 26 27 27 28 29 29 30 31 31 31 31 30 30 29 29
9 10 10 11 12 13 15 16 17 18 18 19 19 20 20 21 22 23 24 24 24 24 24 25 25 25 26 26 26 27 27 27 27 27 27 27 29 29 30 30 31 31 32 32 32 32 31 30 30
10 9 10 12 13 13 14 16 18 19 18 19 20 20 21 22 23 24 24 25 25 25 25 25 25 26 27 28 28 28 26 27 27 28 28 29 29 30 31 32 32 32 32 33 33 33 32 31 30
7 9 10 12 14 12 14 15 16 19 19 19 20 22 23 23 24 24 25 25 26 26 26 27 27 27 28 28 28 27 26 27 27 28 29 29 30 31 32 32 32 33 32 32 32 32 32 31 31
9 10 10 11 13 13 13 14 15 17 20 20 21 23 25 25 24 25 26 26 26 26 26 27 27 27 28 28 27 27 27 28 28 29 29 30 31 32 32 33 33 33 32 31 31 32 32 30 30
9 11 12 12 12 13 12 15 16 18 20 22 23 24 24 25 25 26 26 25 26 26 26 27 27 27 28 27 27 28 28 29 29 30 30 31 32 31 31 32 32 32 32 31 31 31 30 29 29
9 11 11 10 11 13 13 16 17 18 21 22 23 25 25 26 26 26 26 25 25 25 25 26 27 27 27 26 27 29 29 29 29 30 30 30 30 30 31 31 31 31 30 30 30 29 28 27 28
10 10 10 11 13 16 15 16 18 19 21 23 25 27 27 27 26 27 27 26 26 26 26 26 26 26 26 26 27 28 29 29 29 29 30 29 29 29 30 30 30 29 28 27 26 26 26 26 26
10 10 11 13 15 16 13 14 17 20 22 23 26 26 27 27 27 27 27 26 26 26 26 26 27 26 26 27 27 28 29 29 29 29 29 28 28 28 28 28 28 27 26 24 24 23 23 24 24
10 11 13 15 15 15 16 16 19 20 23 24 26 27 27 27 27 26 27 26 26 26 26 26 26 26 27 28 28 29 29 29 29 29 28 28 27 27 27 27 26 25 24 23 22 22 22 23 22
10 11 14 16 17 17 16 17 22 22 25 26 25 25 26 26 26 26 26 26 26 26 26 26 26 26 27 28 28 29 29 29 28 28 28 28 27 27 26 25 24 24 23 22 21 21 20 20 20
11 12 14 16 18 18 17 20 22 23 25 27 25 25 25 26 27 26 26 25 25 25 25 26 26 27 27 27 27 28 28 28 28 27 27 27 27 26 25 24 23 23 22 20 20 19 19 19 19
14 14 16 17 17 19 21 23 24 26 26 26 25 25 26 27 27 26 25 25 25 25 26 25 26 26 26 27 27 27 27 27 27 26 26 25 25 24 23 23 22 21 19 19 18 17 17 17 17
15 16 17 18 19 20 23 25 25 27 25 25 26 26 27 27 26 26 25 25 24 25 25 25 25 26 26 26 26 25 25 25 24 24 23 22 21 21 20 19 19 18 17 17 17 17 16 16 17
Wind_Direction
209 207 202 197 192 185 181 230 223 232 237 234 237 241 249 256 265 263 274 278 279 279 282 288 290 291 291 291 291 292 293 294 294 293 294 294 296 295 295 296 298 298 299 298 297 295 295 292 287
209 209 205 199 195 185 224 242 228 243 241 239 244 248 251 262 268 268 274 278 278 279 283 284 285 289 290 290 290 291 293 294 295 296 295 294 296 297 297 297 298 298 297 297 297 295 293 292 288
208 208 207 201 198 201 229 234 239 249 246 244 249 254 259 268 274 274 274 275 275 279 283 285 285 289 291 291 291 292 293 293 295 296 296 294 295 297 297 297 298 298 296 295 296 294 291 289 286
208 206 205 204 199 216 232 233 235 241 248 249 252 252 259 270 276 276 278 279 277 281 284 285 288 289 289 290 292 293 293 295 297 298 297 297 297 299 299 299 299 298 296 294 293 291 288 287 284
207 205 202 204 209 226 233 233 237 244 248 252 255 258 265 273 277 279 282 284 283 283 285 285 287 291 291 291 292 293 294 296 299 300 299 299 299 298 298 298 296 295 294 294 294 292 289 287 285
207 204 203 204 218 232 236 240 236 244 249 253 256 258 265 273 278 282 284 286 285 284 283 286 287 290 294 291 290 290 293 296 298 298 300 300 298 295 294 295 294 293 291 291 291 290 288 286 283
208 202 200 207 228 238 240 244 243 245 245 250 252 258 264 269 276 283 286 284 285 284 284 285 289 290 293 293 291 291 294 296 297 297 298 297 296 294 293 293 293 292 291 290 290 289 288 286 283
209 203 199 208 229 240 242 242 246 242 245 249 254 259 263 268 276 283 286 285 284 284 284 285 290 292 294 295 295 295 295 296 296 296 296 295 294 292 292 292 292 291 291 290 290 288 286 283 280
208 204 203 210 228 239 246 244 246 247 251 255 255 259 264 269 278 283 285 285 285 287 288 289 292 293 293 294 296 296 296 296 296 295 295 295 294 293 292 293 293 292 293 292 290 288 286 283 279
204 204 210 214 224 235 241 244 245 249 251 252 256 262 270 273 280 284 284 284 287 290 290 289 291 293 294 295 296 297 297 296 296 296 295 294 295 294 292 293 296 296 295 292 290 288 285 283 281
206 209 213 215 223 230 233 238 243 246 251 255 260 264 269 273 281 284 285 287 290 292 294 293 293 295 296 296 295 295 296 297 297 296 295 294 294 294 294 295 296 297 297 294 291 290 286 283 281
209 212 218 220 226 228 227 231 240 245 251 257 262 268 266 272 280 283 286 289 291 293 295 294 295 298 298 297 296 296 295 295 296 296 294 295 296 296 294 294 294 295 294 293 292 288 287 284 279
211 217 221 221 227 226 227 229 237 251 252 260 268 272 273 276 280 280 284 292 296 295 296 296 296 298 299 299 297 298 297 294 294 295 295 295 296 295 293 292 292 292 293 294 293 291 288 286 285
212 221 227 228 232 236 234 234 240 253 265 268 272 274 274 282 283 283 288 293 295 296 297 301 300 299 297 298 296 296 297 295 294 295 296 295 295 295 294 293 292 292 292 293 292 291 290 288 287
210 222 228 231 237 242 245 246 251 252 263 268 273 276 277 284 285 287 291 294 296 297 298 298 299 299 297 298 298 296 295 294 293 292 293 293 293 294 293 293 293 293 293 292 291 290 289 287 286
211 219 233 241 240 247 247 252 254 257 263 270 273 277 280 282 286 292 294 297 299 298 297 297 298 298 298 298 298 296 294 293 292 291 291 292 293 294 293 292 292 292 292 292 291 289 288 286 285
219 219 231 245 249 255 255 259 259 264 265 271 277 279 281 283 286 289 292 295 296 298 297 295 296 297 297 296 296 295 293 294 293 289 289 290 292 294 294 293 292 291 291 291 290 289 288 286 284
224 235 236 238 251 256 259 264 269 273 276 277 278 279 282 284 286 288 291 294 295 297 298 294 294 295 296 296 296 295 293 292 293 291 292 293 294 294 293 293 291 290 290 290 289 289 289 286 283
218 225 228 226 233 249 260 265 270 275 276 279 281 282 282 283 285 287 290 292 294 296 298 297 294 292 293 294 295 294 293 293 294 293 293 294 295 297 296 294 293 290 290 290 289 287 287 286 284
230 237 239 246 242 250 257 266 271 274 277 281 283 284 283 284 287 288 290 290 293 296 296 296 295 293 294 295 295 294 294 295 295 295 295 295 296 297 297 296 295 292 289 289 289 287 286 285 284
242 250 253 260 258 262 274 276 274 279 282 284 285 284 287 288 287 289 290 291 293 294 294 294 294 294 294 294 293 294 295 296 297 296 295 294 295 295 296 295 294 291 290 288 288 288 286 284 283
245 259 259 253 261 267 272 278 276 282 280 281 283 283 284 287 288 290 291 291 292 293 293 293 293 294 296 296 294 295 296 296 297 296 295 296 297 296 296 297 296 293 291 288 287 288 286 283 282
251 254 262 269 270 268 264 264 268 274 280 285 285 288 288 292 290 290 291 291 291 291 292 293 293 295 297 298 297 296 296 298 300 300 300 299 299 299 297 297 297 295 293 290 289 288 286 283 281
258 260 267 275 271 265 265 268 268 271 276 284 290 292 294 294 293 292 291 291 291 290 290 291 292 294 295 297 297 300 301 301 301 302 303 302 302 302 300 300 299 298 296 293 291 289 286 283 281
265 274 278 280 278 285 276 269 265 269 280 289 291 293 295 296 297 297 295 293 291 292 293 290 292 294 295 296 298 301 303 302 302 303 304 304 304 303 302 303 301 301 298 295 293 290 288 286 283
266 269 272 272 275 284 285 279 272 278 284 288 291 295 297 297 299 300 300 295 292 292 293 292 293 294 296 297 298 300 301 301 302 303 303 303 303 303 302 303 302 302 300 298 297 294 290 289 287
265 263 271 277 282 282 278 277 280 282 288 291 293 294 297 299 300 300 299 296 295 295 293 293 294 295 295 295 296 298 301 302 301 302 302 301 302 302 302 302 302 302 301 299 298 296 294 294 294
268 268 269 273 278 278 281 280 278 284 290 295 298 298 297 299 300 299 299 297 297 296 294 295 296 296 295 295 297 299 299 300 300 301 302 300 300 301 300 302 302 302 301 300 298 296 295 296 297
267 272 276 278 276 278 280 282 286 291 291 295 298 298 299 299 299 299 298 297 296 297 297 296 295 296 297 299 300 300 300 300 300 302 301 302 302 302 302 302 302 302 301 300 299 298 296 297 298
261 265 270 274 279 278 280 284 285 290 292 296 297 297 299 299 298 298 299 298 298 297 299 298 296 297 298 300 301 301 302 303 303 304 305 304 304 305 305 304 304 304 303 303 302 300 300 299 299
Height
5892 5895 5897 5899 5902 5903 5904 5906 5906 5906 5906 5906 5905 5905 5905 5905 5907 5908 5905 5904 5905 5904 5904 5904 5904 5904 5904 5903 5903 5903 5902 5901 5901 5900 5899 5898 5897 5896 5896 5895 5894 5894 5893 5892 5892 5891 5890 5890 5889
5890 5893 5895 5898 5900 5901 5904 5904 5903 5904 5905 5904 5904 5904 5905 5905 5905 5905 5904 5904 5904 5903 5903 5903 5903 5903 5902 5902 5901 5901 5900 5900 5899 5898 5897 5896 5896 5895 5894 5893 5892 5891 5891 5890 5890 5889 5888 5888 5887
5888 5890 5894 5896 5899 5900 5902 5903 5902 5902 5902 5902 5903 5903 5904 5904 5904 5903 5903 5903 5903 5902 5902 5902 5901 5901 5900 5900 5899 5899 5898 5898 5897 5896 5895 5894 5893 5892 5892 5891 5890 5889 5888 5888 5887 5887 5886 5885 5885
5885 5889 5892 5895 5898 5899 5899 5900 5899 5899 5900 5901 5901 5901 5901 5902 5902 5902 5901 5902 5901 5901 5901 5900 5900 5899 5899 5898 5897 5897 5896 5895 5894 5893 5892 5891 5891 5890 5889 5888 5887 5887 5886 5885 5885 5884 5883 5883 5882
5883 5886 5890 5893 5896 5897 5897 5897 5895 5897 5898 5899 5900 5899 5899 5900 5900 5900 5900 5900 5899 5899 5899 5898 5898 5897 5896 5896 5895 5894 5894 5893 5892 5891 5890 5889 5888 5887 5886 5885 5885 5884 5883 5882 5882 5881 5881 5880 5879
5880 5884 5888 5891 5895 5895 5895 5893 5892 5895 5897 5897 5897 5898 5898 5898 5898 5898 5897 5898 5897 5897 5896 5896 5895 5895 5894 5893 5893 5892 5891 5890 5889 5888 5887 5886 5885 5884 5883 5882 5881 5881 5880 5879 5878 5878 5877 5877 5876
5879 5882 5885 5890 5893 5893 5893 5892 5891 5893 5895 5894 5894 5896 5896 5896 5896 5896 5895 5895 5895 5894 5894 5893 5893 5892 5891 5891 5890 5889 5888 5888 5886 5885 5884 5882 5881 5880 5880 5879 5878 5877 5876 5876 5875 5874 5874 5873 5872
5875 5879 5882 5887 5890 5889 5889 5889 5890 5891 5891 5890 5891 5893 5893 5894 5894 5893 5893 5893 5892 5892 5891 5891 5890 5889 5889 5888 5887 5887 5886 5884 5883 5882 5880 5879 5878 5877 5876 5875 5874 5873 5872 5871 5871 5870 5869 5869 5869
5872 5877 5880 5885 5887 5886 5886 5886 5887 5887 5888 5888 5889 5889 5890 5891 5891 5891 5890 5890 5890 5889 5889 5888 5888 5887 5886 5885 5884 5883 5882 5881 5880 5878 5877 5875 5874 5873 5872 5871 5870 5869 5868 5867 5866 5866 5865 5865 5864
5870 5874 5878 5881 5883 5884 5883 5883 5884 5885 5886 5886 5885 5887 5888 5888 5888 5888 5888 5888 5887 5886 5886 5885 5885 5884 5883 5882 5881 5880 5879 5877 5876 5874 5873 5872 5871 5869 5868 5867 5866 5865 5864 5863 5862 5861 5860 5860 5860
5867 5871 5873 5876 5877 5879 5880 5881 5881 5881 5883 5883 5883 5884 5885 5885 5885 5886 5886 5885 5884 5884 5883 5882 5881 5880 5879 5878 5877 5876 5875 5873 5872 5870 5869 5868 5866 5865 5864 5862 5861 5860 5859 5858 5857 5856 5856 5855 5855
5864 5867 5868 5870 5873 5875 5876 5877 5879 5879 5880 5881 5881 5881 5881 5881 5883 5883 5883 5882 5882 5881 5880 5879 5878 5877 5875 5874 5873 5872 5870 5869 5868 5866 5865 5864 5862 5861 5859 5858 5857 5856 5855 5854 5853 5852 5851 5850 5849
5862 5864 5866 5867 5868 5871 5873 5875 5877 5877 5877 5878 5879 5880 5879 5880 5880 5880 5880 5879 5878 5877 5876 5876 5874 5873 5871 5870 5868 5867 5866 5864 5863 5862 5861 5859 5858 5856 5855 5853 5852 5851 5850 5849 5848 5846 5846 5845 5843
5860 5863 5864 5866 5867 5869 5871 5873 5874 5875 5875 5876 5876 5876 5876 5876 5876 5877 5876 5876 5875 5874 5873 5872 5871 5869 5867 5866 5863 5862 5861 5860 5858 5857 5856 5854 5853 5852 5850 5849 5847 5846 5845 5844 5842 5841 5840 5839 5838
5859 5861 5863 5865 5867 5867 5869 5871 5872 5874 5874 5874 5873 5873 5873 5873 5873 5872 5873 5872 5872 5871 5869 5868 5867 5865 5863 5861 5859 5858 5857 5855 5854 5852 5851 5849 5848 5846 5845 5844 5842 5840 5839 5838 5837 5835 5834 5833 5832
5857 5860 5862 5864 5865 5866 5868 5869 5869 5870 5870 5871 5872 5871 5871 5871 5870 5869 5869 5869 5868 5866 5865 5864 5862 5861 5859 5857 5855 5853 5852 5850 5848 5847 5845 5844 5842 5841 5839 5838 5836 5835 5833 5832 5830 5829 5827 5826 5826
5857 5859 5861 5863 5864 5865 5866 5865 5866 5866 5867 5868 5868 5869 5869 5868 5867 5866 5865 5865 5864 5862 5861 5859 5857 5856 5854 5853 5851 5849 5847 5845 5843 5841 5839 5838 5837 5835 5833 5831 5830 5828 5827 5825 5824 5822 5821 5819 5818
5857 5859 5860 5862 5863 5864 5864 5864 5864 5865 5865 5865 5866 5866 5865 5864 5863 5862 5861 5860 5859 5858 5856 5854 5853 5851 5849 5848 5846 5844 5842 5840 5837 5835 5833 5832 5831 5829 5826 5825 5823 5821 5820 5818 5816 5814 5813 5812 5811
5856 5858 5858 5859 5862 5862 5863 5862 5862 5862 5862 5862 5863 5862 5862 5861 5860 5858 5857 5856 5855 5853 5851 5850 5848 5846 5844 5843 5840 5838 5836 5834 5832 5830 5828 5826 5824 5822 5820 5818 5815 5813 5812 5810 5808 5806 5805 5804 5803
5856 5857 5857 5858 5859 5860 5860 5860 5860 5859 5859 5859 5859 5858 5857 5856 5856 5854 5853 5851 5850 5848 5847 5845 5843 5841 5839 5837 5835 5833 5831 5829 5827 5824 5822 5820 5818 5815 5813 5811 5808 5806 5804 5802 5800 5799 5797 5796 5795
5855 5855 5855 5857 5857 5857 5858 5858 5858 5857 5855 5855 5855 5854 5853 5851 5850 5849 5848 5847 5845 5843 5842 5840 5838 5836 5834 5832 5829 5827 5825 5823 5821 5818 5816 5814 5811 5808 5806 5803 5800 5798 5796 5794 5793 5791 5789 5788 5787
5854 5854 5854 5855 5856 5856 5858 5857 5856 5854 5853 5852 5851 5849 5848 5846 5845 5843 5842 5841 5840 5838 5837 5835 5832 5830 5828 5825 5823 5821 5819 5817 5814 5812 5809 5807 5804 5801 5799 5796 5793 5790 5788 5786 5784 5783 5781 5780 5779
5852 5853 5853 5853 5854 5855 5855 5855 5854 5851 5850 5848 5847 5845 5844 5841 5840 5838 5837 5836 5834 5833 5831 5829 5827 5825 5823 5820 5818 5815 5812 5810 5808 5805 5802 5799 5797 5794 5791 5788 5785 5783 5780 5778 5776 5775 5773 5772 5771
5851 5852 5851 5851 5852 5852 5852 5852 5850 5846 5846 5845 5843 5841 5840 5838 5836 5834 5832 5830 5829 5827 5825 5823 5821 5820 5817 5815 5812 5809 5806 5803 5801 5798 5795 5793 5790 5787 5784 5781 5778 5775 5773 5770 5768 5767 5766 5765 5764
5850 5851 5851 5851 5850 5848 5848 5847 5845 5843 5842 5840 5839 5837 5836 5834 5832 5829 5827 5825 5823 5821 5820 5818 5816 5814 5811 5809 5806 5803 5800 5797 5795 5792 5789 5786 5783 5780 5777 5774 5771 5769 5766 5764 5762 5760 5759 5758 5757
5848 5849 5850 5849 5847 5846 5845 5843 5842 5840 5839 5837 5835 5833 5831 5829 5827 5825 5822 5819 5817 5815 5814 5812 5810 5808 5805 5803 5800 5797 5794 5791 5789 5786 5783 5780 5777 5774 5771 5768 5766 5763 5760 5758 5756 5755 5753 5752 5751
5847 5847 5847 5845 5844 5843 5842 5840 5837 5835 5834 5833 5831 5829 5827 5825 5823 5820 5817 5814 5812 5809 5808 5806 5804 5802 5799 5797 5794 5791 5788 5785 5782 5780 5777 5774 5771 5768 5765 5763 5760 5757 5755 5753 5751 5750 5748 5747 5745
5845 5844 5844 5842 5840 5839 5838 5836 5833 5830 5830 5827 5824 5823 5822 5820 5818 5815 5812 5809 5807 5804 5802 5800 5797 5795 5793 5791 5788 5785 5782 5779 5776 5774 5771 5768 5765 5762 5760 5757 5755 5752 5750 5748 5746 5745 5743 5742 5741
5842 5842 5840 5839 5838 5836 5835 5834 5830 5827 5824 5822 5821 5819 5817 5815 5812 5810 5807 5804 5802 5799 5797 5794 5792 5789 5787 5784 5782 5779 5776 5773 5770 5767 5765 5762 5759 5757 5754 5752 5749 5747 5745 5743 5742 5740 5739 5738 5736
5836 5837 5836 5835 5834 5832 5830 5831 5825 5823 5820 5817 5816 5814 5812 5810 5807 5804 5801 5799 5796 5794 5791 5788 5786 5783 5781 5778 5776 5773 5770 5768 5765 5762 5760 5757 5755 5752 5750 5747 5745 5743 5741 5739 5737 5736 5735 5733 5732